| time (UTC) | temp C | wind direction | speed KPH | gust KPH | rain 1hr cm | rain 24hr cm | rain mn cm | humidity % | barometer mb |
| 20260507005900 | 25 | 95 | 14.5 | 19.3 | 0.00 | 0.00 | 0.00 | 94 | 1009.7 |
| 20260507005220 | 25 | 88 | 11.3 | 16.1 | 0.00 | 0.00 | 0.00 | 94 | 1009.3 |
| 20260507004540 | 25 | 87 | 12.9 | 16.1 | 0.00 | 0.00 | 0.00 | 94 | 1009.3 |
| 20260507003902 | 25 | 85 | 11.3 | 19.3 | 0.00 | 0.00 | 0.00 | 94 | 1009.3 |
| 20260507003220 | 25 | 92 | 14.5 | 19.3 | 0.00 | 0.00 | 0.00 | 94 | 1009.3 |
| 20260507002750 | 25 | 78 | 11.3 | 19.3 | 0.00 | 0.00 | 0.00 | 94 | 1009.3 |
| 20260507001901 | 25 | 90 | 11.3 | 19.3 | 0.00 | 0.00 | 0.00 | 93 | 1009.3 |
| 20260507001431 | 25 | 97 | 11.3 | 17.7 | 0.00 | 0.00 | 0.00 | 93 | 1009.3 |
| 20260507000540 | 25 | 87 | 12.9 | 17.7 | 0.00 | 0.00 | 0.00 | 93 | 1009.3 |
| 20260506235900 | 25 | 73 | 11.3 | 16.1 | 0.00 | 0.00 | 0.00 | 94 | 1009.3 |
| 20260506235433 | 25 | 76 | 9.7 | 17.7 | 0.00 | 0.00 | 0.00 | 94 | 1009.3 |
| 20260506234540 | 25 | 81 | 11.3 | 17.7 | 0.00 | 0.00 | 0.00 | 93 | 1009.3 |
| 20260506233900 | 26 | 86 | 11.3 | 16.1 | 0.00 | 0.00 | 0.00 | 92 | 1009.3 |
| 20260506233221 | 26 | 96 | 9.7 | 16.1 | 0.00 | 0.00 | 0.00 | 91 | 1009.3 |
| 20260506232750 | 26 | 91 | 11.3 | 17.7 | 0.00 | 0.00 | 0.00 | 90 | 1009.3 |
| 20260506231900 | 26 | 105 | 12.9 | 17.7 | 0.00 | 0.00 | 0.00 | 90 | 1009.0 |
| 20260506231220 | 26 | 99 | 9.7 | 14.5 | 0.00 | 0.00 | 0.00 | 89 | 1008.6 |
| 20260506230540 | 26 | 99 | 11.3 | 12.9 | 0.00 | 0.00 | 0.00 | 89 | 1008.6 |
| 20260506225900 | 26 | 64 | 8.0 | 12.9 | 0.00 | 0.00 | 0.00 | 90 | 1008.6 |
| 20260506225221 | 26 | 85 | 8.0 | 12.9 | 0.00 | 0.00 | 0.00 | 89 | 1009.0 |
| 20260506224540 | 26 | 101 | 9.7 | 14.5 | 0.00 | 0.00 | 0.00 | 90 | 1008.6 |
| 20260506223900 | 26 | 80 | 8.0 | 17.7 | 0.00 | 0.00 | 0.00 | 88 | 1008.6 |
| 20260506223220 | 26 | 113 | 14.5 | 20.9 | 0.00 | 0.00 | 0.00 | 87 | 1008.6 |
| 20260506222540 | 26 | 123 | 16.1 | 20.9 | 0.00 | 0.00 | 0.00 | 86 | 1008.6 |
| 20260506221900 | 26 | 108 | 14.5 | 17.7 | 0.00 | 0.00 | 0.00 | 87 | 1008.6 |
| 20260506221220 | 26 | 113 | 14.5 | 19.3 | 0.00 | 0.00 | 0.00 | 87 | 1008.6 |
| 20260506220540 | 26 | 115 | 16.1 | 20.9 | 0.00 | 0.00 | 0.00 | 88 | 1008.6 |
| 20260506215900 | 26 | 110 | 16.1 | 20.9 | 0.00 | 0.00 | 0.00 | 88 | 1008.6 |
| 20260506215220 | 26 | 112 | 19.3 | 20.9 | 0.00 | 0.00 | 0.00 | 88 | 1009.0 |
| 20260506214540 | 26 | 116 | 17.7 | 20.9 | 0.00 | 0.00 | 0.00 | 88 | 1009.0 |
| 20260506213900 | 26 | 113 | 14.5 | 22.5 | 0.00 | 0.00 | 0.00 | 89 | 1009.0 |
| 20260506213220 | 26 | 124 | 19.3 | 22.5 | 0.00 | 0.00 | 0.00 | 88 | 1009.0 |
| 20260506212540 | 26 | 100 | 11.3 | 16.1 | 0.00 | 0.00 | 0.00 | 90 | 1009.3 |
| 20260506211900 | 26 | 107 | 12.9 | 25.7 | 0.00 | 0.00 | 0.00 | 87 | 1009.3 |
| 20260506211220 | 26 | 112 | 20.9 | 25.7 | 0.00 | 0.00 | 0.00 | 90 | 1009.3 |
| 20260506210754 | 26 | 116 | 19.3 | 32.2 | 0.00 | 0.00 | 0.00 | 91 | 1009.3 |
| 20260506205900 | 26 | 111 | 22.5 | 32.2 | 0.00 | 0.00 | 0.00 | 90 | 1009.3 |
| 20260506205220 | 26 | 117 | 22.5 | 27.4 | 0.00 | 0.00 | 0.00 | 90 | 1009.3 |
| 20260506204540 | 26 | 115 | 19.3 | 29.0 | 0.00 | 0.00 | 0.00 | 89 | 1009.3 |
| 20260506203900 | 26 | 106 | 24.1 | 29.0 | 0.00 | 0.00 | 0.00 | 89 | 1009.3 |
| 20260506203221 | 26 | 116 | 19.3 | 29.0 | 0.00 | 0.00 | 0.00 | 89 | 1009.3 |
| 20260506202752 | 26 | 115 | 22.5 | 29.0 | 0.00 | 0.00 | 0.00 | 89 | 1009.0 |
| 20260506201900 | 26 | 114 | 20.9 | 27.4 | 0.00 | 0.00 | 0.00 | 90 | 1009.3 |
| 20260506201222 | 26 | 116 | 22.5 | 27.4 | 0.00 | 0.00 | 0.00 | 91 | 1009.3 |
| 20260506200540 | 26 | 117 | 22.5 | 29.0 | 0.00 | 0.00 | 0.00 | 91 | 1009.7 |
| 20260506195902 | 26 | 115 | 19.3 | 25.7 | 0.00 | 0.00 | 0.00 | 90 | 1009.7 |
| 20260506195220 | 26 | 112 | 19.3 | 22.5 | 0.00 | 0.00 | 0.00 | 90 | 1009.7 |
| 20260506194751 | 26 | 113 | 17.7 | 24.1 | 0.00 | 0.00 | 0.00 | 90 | 1009.7 |
| 20260506193900 | 26 | 118 | 20.9 | 24.1 | 0.00 | 0.00 | 0.00 | 90 | 1010.0 |
| 20260506193432 | 25 | 112 | 14.5 | 22.5 | 0.00 | 0.00 | 0.00 | 90 | 1010.0 |
| 20260506192753 | 25 | 112 | 19.3 | 22.5 | 0.00 | 0.00 | 0.00 | 90 | 1010.0 |
| 20260506191901 | 26 | 122 | 19.3 | 22.5 | 0.00 | 0.00 | 0.00 | 90 | 1010.3 |
| 20260506191220 | 26 | 132 | 16.1 | 24.1 | 0.00 | 0.00 | 0.00 | 89 | 1010.3 |
| 20260506190540 | 26 | 135 | 20.9 | 24.1 | 0.00 | 0.00 | 0.00 | 90 | 1010.3 |
| 20260506185900 | 26 | 127 | 16.1 | 22.5 | 0.00 | 0.00 | 0.00 | 91 | 1010.7 |
| 20260506185222 | 26 | 124 | 17.7 | 22.5 | 0.00 | 0.00 | 0.00 | 91 | 1010.7 |
| 20260506184540 | 25 | 120 | 14.5 | 20.9 | 0.00 | 0.00 | 0.00 | 91 | 1010.7 |
| 20260506183900 | 25 | 122 | 16.1 | 20.9 | 0.00 | 0.00 | 0.00 | 92 | 1010.7 |
| 20260506183220 | 25 | 121 | 14.5 | 17.7 | 0.00 | 0.00 | 0.00 | 92 | 1010.7 |
| 20260506182754 | 25 | 121 | 16.1 | 19.3 | 0.00 | 0.00 | 0.00 | 92 | 1010.7 |
| 20260506181900 | 25 | 117 | 14.5 | 17.7 | 0.00 | 0.00 | 0.00 | 92 | 1010.7 |
| 20260506181220 | 26 | 123 | 11.3 | 16.1 | 0.00 | 0.00 | 0.00 | 92 | 1011.0 |
| 20260506180750 | 26 | 125 | 12.9 | 17.7 | 0.00 | 0.00 | 0.00 | 91 | 1011.0 |
| 20260506175859 | 26 | 122 | 12.9 | 20.9 | 0.00 | 0.00 | 0.00 | 91 | 1011.0 |
| 20260506175219 | 26 | 115 | 16.1 | 20.9 | 0.00 | 0.00 | 0.00 | 90 | 1011.0 |
| 20260506174539 | 26 | 112 | 12.9 | 24.1 | 0.00 | 0.00 | 0.00 | 91 | 1011.0 |
| 20260506173859 | 26 | 115 | 17.7 | 24.1 | 0.00 | 0.00 | 0.00 | 91 | 1011.0 |
| 20260506173219 | 26 | 116 | 17.7 | 24.1 | 0.00 | 0.00 | 0.00 | 90 | 1011.0 |
| 20260506172539 | 26 | 117 | 11.3 | 22.5 | 0.00 | 0.00 | 0.00 | 90 | 1011.0 |
| 20260506171859 | 26 | 120 | 19.3 | 22.5 | 0.00 | 0.00 | 0.00 | 90 | 1010.7 |
| 20260506171219 | 26 | 116 | 16.1 | 22.5 | 0.00 | 0.00 | 0.00 | 89 | 1011.0 |
| 20260506170539 | 26 | 114 | 16.1 | 20.9 | 0.00 | 0.00 | 0.00 | 89 | 1011.0 |
| 20260506165859 | 26 | 119 | 16.1 | 24.1 | 0.00 | 0.00 | 0.00 | 90 | 1011.0 |
| 20260506165219 | 25 | 118 | 19.3 | 25.7 | 0.00 | 0.00 | 0.00 | 91 | 1010.7 |
| 20260506164539 | 25 | 114 | 17.7 | 25.7 | 0.00 | 0.00 | 0.00 | 91 | 1011.0 |
| 20260506164109 | 25 | 120 | 20.9 | 25.7 | 0.00 | 0.00 | 0.00 | 91 | 1011.0 |
| 20260506163219 | 25 | 109 | 17.7 | 27.4 | 0.00 | 0.00 | 0.00 | 91 | 1011.0 |
| 20260506162539 | 25 | 114 | 20.9 | 27.4 | 0.00 | 0.00 | 0.00 | 92 | 1010.7 |
| 20260506161859 | 25 | 112 | 19.3 | 25.7 | 0.00 | 0.00 | 0.00 | 92 | 1010.7 |
| 20260506161219 | 25 | 115 | 20.9 | 25.7 | 0.00 | 0.00 | 0.00 | 93 | 1010.7 |
| 20260506160539 | 25 | 116 | 19.3 | 22.5 | 0.00 | 0.00 | 0.00 | 93 | 1010.3 |
| 20260506155859 | 25 | 121 | 14.5 | 20.9 | 0.00 | 0.00 | 0.00 | 94 | 1010.3 |
| 20260506155219 | 25 | 125 | 17.7 | 24.1 | 0.00 | 0.00 | 0.00 | 94 | 1010.3 |
| 20260506154748 | 25 | 130 | 17.7 | 22.5 | 0.00 | 0.00 | 0.00 | 95 | 1010.3 |
| 20260506154109 | 25 | 120 | 17.7 | 24.1 | 0.00 | 0.00 | 0.00 | 95 | 1010.3 |
| 20260506153430 | 25 | 116 | 19.3 | 30.6 | 0.00 | 0.00 | 0.00 | 94 | 1010.0 |
| 20260506152751 | 25 | 118 | 24.1 | 32.2 | 0.00 | 0.00 | 0.00 | 94 | 1010.3 |
| 20260506151859 | 25 | 118 | 25.7 | 30.6 | 0.00 | 0.00 | 0.00 | 94 | 1010.0 |
| 20260506151219 | 25 | 118 | 19.3 | 29.0 | 0.00 | 0.00 | 0.00 | 94 | 1010.0 |
| 20260506150539 | 25 | 117 | 24.1 | 32.2 | 0.00 | 0.00 | 0.00 | 94 | 1010.0 |
| 20260506145900 | 25 | 117 | 24.1 | 30.6 | 0.00 | 0.00 | 0.00 | 94 | 1010.0 |
| 20260506145434 | 25 | 108 | 22.5 | 30.6 | 0.00 | 0.00 | 0.00 | 94 | 1010.0 |
| 20260506144749 | 25 | 108 | 25.7 | 29.0 | 0.00 | 0.00 | 0.00 | 94 | 1010.0 |
| 20260506143901 | 25 | 115 | 19.3 | 24.1 | 0.00 | 0.00 | 0.00 | 95 | 1010.0 |
| 20260506143220 | 25 | 112 | 19.3 | 25.7 | 0.00 | 0.00 | 0.00 | 95 | 1010.0 |
| 20260506142540 | 25 | 117 | 22.5 | 27.4 | 0.00 | 0.00 | 0.00 | 95 | 1010.0 |
| 20260506141900 | 25 | 114 | 20.9 | 27.4 | 0.00 | 0.00 | 0.00 | 95 | 1010.0 |
| 20260506141220 | 25 | 110 | 20.9 | 29.0 | 0.00 | 0.00 | 0.00 | 94 | 1010.0 |
| 20260506140542 | 25 | 109 | 22.5 | 29.0 | 0.00 | 0.00 | 0.00 | 94 | 1010.0 |
| 20260506135900 | 25 | 108 | 17.7 | 27.4 | 0.00 | 0.00 | 0.00 | 95 | 1009.7 |
| 20260506135220 | 25 | 103 | 17.7 | 25.7 | 0.00 | 0.00 | 0.00 | 95 | 1009.7 |
| 20260506134540 | 25 | 104 | 17.7 | 25.7 | 0.00 | 0.00 | 0.00 | 95 | 1009.7 |
| 20260506133900 | 25 | 111 | 20.9 | 29.0 | 0.00 | 0.00 | 0.00 | 95 | 1009.7 |
| 20260506133220 | 25 | 114 | 19.3 | 27.4 | 0.00 | 0.00 | 0.00 | 95 | 1009.7 |
| 20260506132540 | 25 | 111 | 17.7 | 27.4 | 0.00 | 0.00 | 0.00 | 95 | 1009.7 |
| 20260506131900 | 25 | 117 | 22.5 | 25.7 | 0.00 | 0.00 | 0.00 | 95 | 1009.7 |
| 20260506131220 | 25 | 112 | 16.1 | 20.9 | 0.00 | 0.00 | 0.00 | 96 | 1009.7 |
| 20260506130754 | 25 | 120 | 17.7 | 20.9 | 0.00 | 0.00 | 0.00 | 96 | 1010.0 |
| 20260506130109 | 25 | 121 | 16.1 | 19.3 | 0.00 | 0.00 | 0.00 | 96 | 1010.0 |
| 20260506125430 | 25 | 123 | 14.5 | 22.5 | 0.00 | 0.00 | 0.00 | 96 | 1009.7 |
| 20260506124540 | 25 | 123 | 16.1 | 22.5 | 0.00 | 0.00 | 0.00 | 97 | 1009.7 |
| 20260506124111 | 25 | 117 | 14.5 | 19.3 | 0.00 | 0.00 | 0.00 | 97 | 1009.7 |
| 20260506123432 | 25 | 125 | 14.5 | 19.3 | 0.00 | 0.00 | 0.00 | 97 | 1009.7 |
| 20260506122542 | 25 | 124 | 12.9 | 19.3 | 0.00 | 0.00 | 0.00 | 96 | 1009.7 |
| 20260506122113 | 25 | 126 | 16.1 | 22.5 | 0.00 | 0.00 | 0.00 | 96 | 1009.7 |
| 20260506121434 | 25 | 128 | 14.5 | 25.7 | 0.00 | 0.00 | 0.00 | 96 | 1009.3 |
| 20260506120540 | 25 | 122 | 19.3 | 22.5 | 0.00 | 0.00 | 0.00 | 96 | 1009.3 |
| 20260506115902 | 25 | 125 | 14.5 | 25.7 | 0.00 | 0.00 | 0.00 | 96 | 1009.3 |
| 20260506115221 | 25 | 123 | 19.3 | 25.7 | 0.00 | 0.00 | 0.00 | 96 | 1009.3 |
| 20260506114540 | 25 | 122 | 20.9 | 24.1 | 0.00 | 0.00 | 0.00 | 96 | 1009.0 |
| 20260506113900 | 25 | 123 | 19.3 | 22.5 | 0.00 | 0.00 | 0.00 | 96 | 1009.3 |
| 20260506113222 | 25 | 122 | 17.7 | 22.5 | 0.00 | 0.00 | 0.00 | 96 | 1009.3 |
| 20260506112540 | 25 | 123 | 14.5 | 22.5 | 0.00 | 0.00 | 0.00 | 96 | 1009.3 |
| 20260506112114 | 25 | 123 | 16.1 | 22.5 | 0.00 | 0.00 | 0.00 | 96 | 1009.0 |
| 20260506111429 | 25 | 117 | 17.7 | 25.7 | 0.00 | 0.00 | 0.00 | 96 | 1009.0 |
| 20260506110540 | 25 | 120 | 16.1 | 25.7 | 0.00 | 0.00 | 0.00 | 96 | 1009.0 |
| 20260506105900 | 25 | 121 | 20.9 | 25.7 | 0.00 | 0.00 | 0.00 | 96 | 1009.0 |
| 20260506105431 | 25 | 121 | 16.1 | 25.7 | 0.00 | 0.00 | 0.00 | 96 | 1009.0 |
| 20260506104752 | 25 | 117 | 19.3 | 27.4 | 0.00 | 0.00 | 0.00 | 96 | 1009.0 |
| 20260506103900 | 25 | 123 | 20.9 | 27.4 | 0.00 | 0.00 | 0.00 | 96 | 1009.0 |
| 20260506103220 | 25 | 121 | 17.7 | 20.9 | 0.00 | 0.00 | 0.00 | 96 | 1009.0 |
| 20260506102540 | 25 | 132 | 16.1 | 20.9 | 0.00 | 0.00 | 0.00 | 96 | 1009.0 |
| 20260506101900 | 25 | 127 | 17.7 | 24.1 | 0.00 | 0.00 | 0.00 | 96 | 1009.0 |
| 20260506101220 | 25 | 126 | 16.1 | 24.1 | 0.00 | 0.00 | 0.00 | 96 | 1009.0 |
| 20260506100540 | 25 | 127 | 16.1 | 22.5 | 0.00 | 0.00 | 0.00 | 95 | 1008.6 |
| 20260506095901 | 25 | 121 | 12.9 | 27.4 | 0.00 | 0.00 | 0.00 | 95 | 1008.6 |
| 20260506095220 | 25 | 117 | 20.9 | 27.4 | 0.00 | 0.00 | 0.00 | 96 | 1008.6 |
| 20260506094540 | 25 | 120 | 22.5 | 29.0 | 0.00 | 0.00 | 0.00 | 96 | 1008.6 |
| 20260506094113 | 25 | 117 | 22.5 | 29.0 | 0.00 | 0.00 | 0.00 | 96 | 1008.6 |
| 20260506093220 | 25 | 119 | 22.5 | 27.4 | 0.00 | 0.00 | 0.00 | 96 | 1008.6 |
| 20260506092540 | 25 | 115 | 19.3 | 25.7 | 0.00 | 0.00 | 0.00 | 96 | 1008.6 |
| 20260506091900 | 25 | 117 | 19.3 | 27.4 | 0.00 | 0.00 | 0.00 | 96 | 1008.6 |
| 20260506091220 | 25 | 113 | 19.3 | 27.4 | 0.00 | 0.00 | 0.00 | 96 | 1008.6 |
| 20260506090540 | 25 | 116 | 22.5 | 27.4 | 0.00 | 0.00 | 0.00 | 96 | 1008.6 |
| 20260506085900 | 25 | 118 | 20.9 | 27.4 | 0.00 | 0.00 | 0.00 | 96 | 1008.6 |
| 20260506085220 | 25 | 115 | 22.5 | 27.4 | 0.00 | 0.00 | 0.00 | 96 | 1008.6 |
| 20260506084753 | 25 | 114 | 16.1 | 22.5 | 0.00 | 0.00 | 0.00 | 96 | 1008.6 |
| 20260506083900 | 25 | 119 | 14.5 | 19.3 | 0.00 | 0.00 | 0.00 | 97 | 1009.0 |
| 20260506083220 | 25 | 128 | 14.5 | 20.9 | 0.00 | 0.00 | 0.00 | 97 | 1009.0 |
| 20260506082750 | 25 | 133 | 14.5 | 19.3 | 0.00 | 0.00 | 0.00 | 97 | 1009.0 |
| 20260506081900 | 25 | 129 | 16.1 | 19.3 | 0.00 | 0.00 | 0.00 | 97 | 1009.3 |
| 20260506081220 | 25 | 124 | 14.5 | 19.3 | 0.00 | 0.00 | 0.00 | 97 | 1009.3 |
| 20260506080540 | 25 | 129 | 16.1 | 20.9 | 0.00 | 0.00 | 0.00 | 97 | 1009.0 |
| 20260506073220 | 25 | 136 | 12.9 | 19.3 | 0.00 | 0.00 | 0.00 | 96 | 1009.7 |
| 20260506072750 | 25 | 138 | 11.3 | 19.3 | 0.00 | 0.00 | 0.00 | 96 | 1009.7 |
| 20260506071900 | 25 | 134 | 11.3 | 19.3 | 0.00 | 0.00 | 0.00 | 96 | 1009.7 |
| 20260506071220 | 25 | 138 | 12.9 | 16.1 | 0.00 | 0.00 | 0.00 | 96 | 1009.7 |
| 20260506070540 | 25 | 139 | 11.3 | 20.9 | 0.00 | 0.00 | 0.00 | 96 | 1010.0 |
| 20260506061900 | 25 | 131 | 19.3 | 25.7 | 0.00 | 0.00 | 0.00 | 96 | 1009.7 |
| 20260506061220 | 25 | 127 | 17.7 | 30.6 | 0.00 | 0.00 | 0.00 | 96 | 1009.7 |
| 20260506060540 | 25 | 127 | 20.9 | 30.6 | 0.00 | 0.00 | 0.00 | 96 | 1009.7 |
| 20260506051221 | 25 | 128 | 22.5 | 32.2 | 0.00 | 0.00 | 0.00 | 95 | 1009.3 |
| 20260506050540 | 25 | 124 | 22.5 | 32.2 | 0.00 | 0.00 | 0.00 | 95 | 1009.3 |
| 20260506044540 | 25 | 127 | 24.1 | 37.0 | 0.00 | 0.00 | 0.00 | 95 | 1009.7 |
| 20260506044111 | 25 | 126 | 25.7 | 37.0 | 0.00 | 0.00 | 0.00 | 94 | 1009.7 |
| 20260506043220 | 25 | 128 | 25.7 | 35.4 | 0.00 | 0.00 | 0.00 | 94 | 1009.3 |
| 20260506042540 | 25 | 127 | 25.7 | 32.2 | 0.00 | 0.00 | 0.00 | 94 | 1009.3 |
| 20260506041900 | 25 | 126 | 24.1 | 35.4 | 0.00 | 0.00 | 0.00 | 94 | 1009.7 |
| 20260506041220 | 25 | 126 | 22.5 | 32.2 | 0.00 | 0.00 | 0.00 | 94 | 1009.3 |
| 20260506040540 | 25 | 128 | 24.1 | 35.4 | 0.00 | 0.00 | 0.00 | 94 | 1009.7 |
| 20260506035900 | 25 | 130 | 29.0 | 38.6 | 0.00 | 0.00 | 0.00 | 94 | 1009.7 |
| 20260506035220 | 25 | 128 | 24.1 | 38.6 | 0.00 | 0.00 | 0.00 | 94 | 1009.7 |
| 20260506034751 | 25 | 127 | 22.5 | 35.4 | 0.00 | 0.00 | 0.00 | 94 | 1009.7 |
| 20260506033900 | 25 | 128 | 25.7 | 35.4 | 0.00 | 0.00 | 0.00 | 94 | 1009.3 |
| 20260506033220 | 25 | 127 | 24.1 | 35.4 | 0.00 | 0.00 | 0.00 | 94 | 1009.7 |
| 20260506032540 | 25 | 126 | 25.7 | 33.8 | 0.00 | 0.00 | 0.00 | 94 | 1009.3 |
| 20260506031900 | 25 | 125 | 24.1 | 35.4 | 0.00 | 0.00 | 0.00 | 94 | 1009.3 |
| 20260506031220 | 25 | 127 | 24.1 | 35.4 | 0.00 | 0.00 | 0.00 | 94 | 1009.3 |
| 20260506030540 | 25 | 124 | 25.7 | 35.4 | 0.00 | 0.00 | 0.00 | 94 | 1009.3 |
| 20260506025900 | 25 | 127 | 25.7 | 37.0 | 0.00 | 0.00 | 0.00 | 94 | 1009.3 |
| 20260506025431 | 25 | 129 | 27.4 | 33.8 | 0.00 | 0.00 | 0.00 | 94 | 1009.3 |
| 20260506024540 | 25 | 130 | 27.4 | 33.8 | 0.00 | 0.00 | 0.00 | 94 | 1009.0 |
| 20260506023900 | 25 | 127 | 27.4 | 35.4 | 0.00 | 0.00 | 0.00 | 94 | 1009.0 |
| 20260506023220 | 25 | 130 | 25.7 | 38.6 | 0.00 | 0.00 | 0.00 | 94 | 1009.0 |
| 20260506022540 | 25 | 129 | 29.0 | 35.4 | 0.00 | 0.00 | 0.00 | 94 | 1009.0 |
| 20260506021900 | 25 | 128 | 27.4 | 35.4 | 0.00 | 0.00 | 0.00 | 94 | 1008.6 |
| 20260506021220 | 25 | 129 | 25.7 | 38.6 | 0.00 | 0.00 | 0.00 | 94 | 1008.6 |
| 20260506020540 | 25 | 129 | 29.0 | 38.6 | 0.00 | 0.00 | 0.00 | 94 | 1008.6 |
| 20260506015900 | 25 | 127 | 27.4 | 37.0 | 0.00 | 0.00 | 0.00 | 94 | 1008.6 |
| 20260506015220 | 25 | 129 | 29.0 | 37.0 | 0.00 | 0.00 | 0.00 | 94 | 1008.3 |
| 20260506014540 | 25 | 127 | 25.7 | 37.0 | 0.00 | 0.00 | 0.00 | 94 | 1008.3 |
| 20260506013900 | 25 | 128 | 24.1 | 37.0 | 0.00 | 0.00 | 0.00 | 94 | 1008.3 |
| 20260506013220 | 25 | 123 | 29.0 | 37.0 | 0.00 | 0.00 | 0.00 | 94 | 1008.0 |
| 20260506012540 | 25 | 122 | 24.1 | 33.8 | 0.00 | 0.00 | 0.00 | 94 | 1008.0 |
| 20260506011902 | 25 | 122 | 24.1 | 33.8 | 0.00 | 0.00 | 0.00 | 94 | 1008.0 |
| 20260506011220 | 25 | 122 | 20.9 | 29.0 | 0.00 | 0.00 | 0.00 | 94 | 1008.0 |
| 20260506010540 | 25 | 125 | 19.3 | 32.2 | 0.00 | 0.00 | 0.00 | 93 | 1007.6 |
| 20260506010112 | 25 | 124 | 20.9 | 29.0 | 0.00 | 0.00 | 0.00 | 93 | 1007.6 |